Location: Austin
(30.3000°N, 97.7500°W)
Time: 12:01:13
(UTC-05:00)

SL-16 R/B - Pass Details

Date: 03 April 2024
Orbit: 985 x 1006 km, 99.7° (Epoch: 21 April)

Event Time Altitude Azimuth Distance (km) Brightness Sun altitude
Exits shadow 04:11:19 26° 359° (N) 1,840 4.1 -38.0°
Drops below altitude 10° 04:13:50 10° 353° (N) 2,752 5.1 -37.6°
Sets 04:16:20 0° 351° (N) 3,706 5.8 -37.2°
